User: anonymous   Login
Location: Hopkins Observatory
(42.6965°N, 73.1843°W)
Time: 02:33:57
(UTC-04:00)
Language:

RS-15 - Orbit

View from above orbital plane
View from above orbital plane
View from above satellite
View from above satellite

Ground track
Ground track

The orbit data is extracted from the following two-line orbital elements,

1 23439U 94085A   15088.89597701 -.00000033  00000-0  28060-3 0  9991
2 23439 064.8151 089.6960 0151434 027.3984 333.4821 11.27562883834212
Epoch (UTC): 29 March 2015 21:30:12
Eccentricity: 0.0151434
inclination: 64.8151°
perigee height: 1895 km
apogee height: 2149 km
right ascension of ascending node: 89.6960°
argument of perigee: 27.3984°
revolutions per day: 11.27562883
mean anomaly at epoch: 333.4821°
orbit number at epoch: 83421

The dashed part of the orbit path shows where the satellite is in the earth's shadow,  

DLR